Location: Cercola
(40.8500°N, 14.3500°E)
Time: 01:51:36
(UTC+00:00)

Daily predictions for brighter satellites

Satellite Brightness Start Highest point End
(mag) Time Altitude Azimuth Time Altitude Azimuth Time Altitude Azimuth
CENTAUR R/B 3.9 02:14:21 46° ENE 02:14:21 46° ENE 02:22:11 10° ESE
ATLAS 2AS CENTAUR R/B 4.1 02:27:56 35° SE 02:29:48 39° ESE 02:37:00 10° NE
NOSS 3-2 (A) 4.4 02:41:09 58° SE 02:41:09 58° SE 02:47:52 10° SE
Atlas Centaur 2 4.2 02:44:04 23° SSE 02:44:04 23° SSE 02:47:29 10° ESE
BREEZE-M DEB (TANK) 4.3 02:45:10 77° NNE 02:45:10 77° NNE 03:06:13 10° ENE
Lacrosse 5 3.9 02:52:48 25° ENE 02:52:48 25° ENE 02:55:04 10° NE
USA 238 DEB 4.1 02:58:22 61° SSE 02:58:22 61° SSE 03:04:26 10° SSE
USA 238 4.1 02:58:25 62° SSE 02:58:25 62° SSE 03:04:31 10° SSE
Cosmos 2263 Rocket 3.9 03:01:26 25° NNE 03:01:26 25° NNE 03:03:43 10° NNE
SJ 16-02 3.8 03:08:47 16° NE 03:08:47 16° NE 03:09:50 10° NE
FENGYUN 3A 4.2 03:14:41 10° NNE 03:20:01 55° E 03:25:17 10° S
Cosmos 1709 Rocket 4.2 03:13:44 10° S 03:20:02 70° E 03:26:24 10° NNE
CZ-4C R/B 2.9 03:25:49 37° SSE 03:27:02 45° ESE 03:32:18 10° NE
Cosmos 1603 3.8 03:30:28 66° SSE 03:30:28 66° SSE 03:35:15 10° SSE
Meteor 2-3 Rocket 4.3 03:24:09 10° S 03:29:43 58° E 03:35:23 10° NNE
ATLAS 3B R/B 3.8 03:30:35 22° N 03:34:28 39° NE 03:41:07 10° ESE
Cosmos 1943 3.1 03:36:00 87° SW 03:36:00 87° SW 03:41:40 10° SSE
Lacrosse 4 Rocket 2.1 03:38:11 54° E 03:38:11 54° E 03:42:03 10° SE
Genesis I 4.2 03:49:54 41° SE 03:50:28 44° ESE 03:54:08 10° NE
Cosmos 1461 3.9 03:52:16 40° S 03:52:16 40° S 03:55:18 10° SSE
Cosmos 990 Rocket 4.4 03:47:31 10° S 03:52:39 61° ESE 03:57:50 10° NNE
ALOS 3.5 03:50:57 10° N 04:02:13 - SSW 03:53:16 29° N
Cosmos 923 Rocket 4.1 03:53:37 31° N 03:56:12 74° ENE 04:01:30 10° SSE
deb Chang Zheng 4 3.7 03:52:30 10° NNE 03:56:52 74° ESE 04:01:12 10° S
METEOR-M 4.0 03:55:01 10° NNE 04:00:23 82° WNW 04:05:43 10° SSW
NOSS 3-4 (A) 3.5 04:00:50 47° WNW 04:01:07 47° NW 04:07:10 10° NNE
NOSS 3-4 (C) 3.5 04:00:54 47° WNW 04:01:14 48° NW 04:07:17 10° NNE
CZ-4B R/B 3.7 03:59:16 10° S 03:59:53 15° S 03:59:53 15° S
NOSS 3-2 (C) 4.3 04:00:08 39° WNW 04:02:45 52° WSW 04:11:03 10° S
Milstar 3 Cent rocket 4.2 04:00:16 21° SW 04:04:37 38° S 04:16:45 10° ESE
CENTAUR R/B 3.4 04:01:35 36° WNW 04:04:47 52° WSW 04:13:17 10° S
Meteor 2-17 Rocket 4.3 04:05:43 10° S 04:11:46 85° W 04:17:51 10° N
Cosmos 158 Rocket 3.7 04:10:38 33° NNW 04:12:53 81° WSW 04:17:52 10° SSE
Cosmos 1515 Rocket 3.9 04:09:53 10° N 04:14:20 66° E 04:18:46 10° SSE
SL-4 R/B 3.9 04:15:03 17° N 04:15:03 17° N 04:17:11 10° NE
USA 234 4.5 04:08:44 10° ENE 04:14:50 41° SE 04:20:55 10° SSW
SKYMED 2 3.6 04:11:19 10° SSE 04:15:37 79° ENE 04:19:24 14° N
Cosmos 1844 Rocket 2.9 04:10:50 10° SSW 04:16:26 71° ESE 04:22:06 10° NNE
GPS 2-04 Rocket1 3.5 04:16:28 34° SSW 04:17:15 38° S 04:20:50 10° ESE
Cosmos 1151 Rocket 3.0 04:17:01 52° WNW 04:17:20 54° W 04:21:31 10° S
Cosmos 1782 2.7 04:16:34 26° N 04:18:49 87° W 04:22:50 10° S
ERS-2 2.7 04:16:33 10° S 04:19:17 40° SW 04:19:17 40° SW
ATLAS 2AS CENTAUR R/B 3.1 04:15:30 22° WSW 04:20:39 53° NW 04:28:21 10° NNE
COSMOS 2455 4.2 04:17:25 10° S 04:23:00 41° ESE 04:28:36 10° NE
FALCON 9 DEB 4.4 04:24:39 26° N 04:24:39 26° N 04:26:38 10° NE
Cosmos 1680 Rocket 3.4 04:20:02 17° NNW 04:24:10 84° WSW 04:29:28 10° SSE
SJ-12 3.7 04:20:35 10° N 04:24:37 68° WNW 04:28:38 10° SSW
Cosmos 1844 3.9 04:24:36 10° SSW 04:30:07 74° ESE 04:35:41 10° NNE
RESURS DK-1 2.3 04:26:56 12° SW 04:30:48 62° WNW 04:34:56 10° NNE
CRYOSAT 2 4.3 04:26:02 10° S 04:30:48 58° W 04:35:37 10° NNW
Atlas Centaur 2 3.6 04:26:40 14° SW 04:31:07 30° S 04:35:44 10° ESE
Lacrosse 5 2.5 04:32:03 31° WNW 04:33:18 35° NW 04:37:58 10° NNE
ATLAS CENTAUR R/B 2.0 04:32:06 19° NNW 04:34:37 49° NE 04:38:28 10° SE
Cosmos 1500 Rocket 3.5 04:30:36 10° S 04:34:53 83° E 04:39:14 10° N
ADEOS 4.1 04:30:32 10° N 04:35:15 35° WNW 04:39:57 10° SW
Cosmos 1328 Rocket 4.0 04:35:40 27° NW 04:37:18 38° W 04:41:24 10° SSW
Meteor PRIRODA 3.5 04:33:50 10° N 04:37:33 68° WNW 04:41:15 10° SSW
Meteor 2-6 Rocket 4.2 04:33:44 10° N 04:39:09 78° E 04:44:38 10° SSE
OAO 2 Rocket 4.1 04:37:06 20° WSW 04:40:10 42° S 04:45:00 10° ESE
H-2A R/B 2.9 04:37:35 10° NNE 04:41:30 77° ESE 04:45:21 10° S
Cosmos 2263 Rocket 3.7 04:43:11 17° NW 04:43:11 17° NW 04:46:22 10° N
Cosmos 1437 Rocket 4.4 04:39:31 10° N 04:43:00 34° ENE 04:46:26 10° SE
Cosmos 2112 Rocket 4.0 04:38:53 12° NNW 04:43:55 66° WSW 04:49:11 10° S
SJ 16-02 2.9 04:45:52 18° NW 04:45:52 18° NW 04:47:47 10° NNW
Okean O Rocket 4.1 04:41:29 10° NE 04:45:12 26° E 04:48:54 10° SSE
Gbstr 26 Del rocket 2.7 04:43:34 26° NW 04:45:33 73° NE 04:49:34 10° ESE
Meteor 1-4 Rocket 3.9 04:46:47 21° WSW 04:46:47 21° WSW 04:48:40 10° SW
ATLAS 5 CENTAUR R/B 4.0 04:44:01 10° SSE 04:47:13 23° ESE 04:50:36 10° ENE
Nadezhda 3 Rocket 4.2 04:45:20 10° N 04:51:39 76° E 04:57:52 10° SSE
Cosmos 1898 Rocket 3.8 04:46:42 10° SW 04:51:47 46° WNW 04:56:55 10° N
CZ-2C R/B 4.3 04:48:39 10° SE 04:53:31 33° ENE 04:58:17 10° N
Sich 1 4.0 04:51:31 10° SSE 04:55:48 51° E 05:00:07 10° NNE
FALCON 9 DEB 4.4 04:56:35 20° NW 04:57:09 21° NNW 04:59:41 10° NNE
FALCON 9 DEB 4.5 04:56:45 19° NW 04:57:17 20° NNW 04:59:46 10° NNE
Cosmos 1743 Rocket 3.7 04:54:32 10° SSW 04:58:51 51° W 05:03:14 10° N
Envisat 3.2 04:55:40 10° NNE 05:00:46 79° ESE 05:05:51 10° S
SJ-7 4.3 04:58:04 10° N 05:02:08 76° WNW 05:06:15 10° SSW
COSMO-SKYMED 1 3.4 04:59:58 10° SSW 05:03:47 30° W 05:07:37 10° NW
H-2A R/B 2.5 05:00:16 10° NNE 05:04:07 72° ESE 05:07:55 10° S
CZ-4B R/B 4.2 05:03:35 10° NNE 05:08:48 51° E 05:14:05 10° S
Cosmos 1937 Rocket 3.8 05:03:59 10° SW 05:08:52 43° WNW 05:13:50 10° N
MOS 1 Rocket 3.4 05:09:21 10° S 05:14:02 64° W 05:19:05 10° NNW
Cosmos 2154 Rocket 4.0 05:08:26 10° SSW 05:14:34 62° W 05:20:47 10° N
CZ-4C R/B 3.0 05:11:22 10° W 05:15:44 29° NW 05:20:51 10° NNE
Lacrosse 4 Rocket 3.3 05:14:32 12° W 05:15:54 13° WSW 05:18:02 10° SW
Cosmos 1833 Rocket 4.3 05:11:49 10° N 05:16:47 31° ENE 05:21:42 10° ESE
Cosmos 1689 Rocket 3.7 05:15:00 10° SW 05:16:56 17° W 05:18:12 13° WNW
Cosmos 1805 Rocket 3.5 05:13:38 10° SSW 05:18:01 66° W 05:22:28 10° N
CZ-4B R/B 4.2 05:15:07 10° NNW 05:18:42 24° WNW 05:22:13 10° WSW
Meteor 1-27 Rocket 3.9 05:14:56 10° N 05:20:44 86° E 05:26:38 10° S
Meteor 1-10 Rocket 4.3 05:17:14 10° NNW 05:22:39 55° W 05:28:07 10° S
Aureole 2 Rocket 2.7 05:20:45 10° WSW 05:22:53 24° WNW 05:25:02 10° N
Cosmos 2150 Rocket 4.4 05:18:40 10° S 05:23:58 70° ESE 05:29:13 10° NNE
Cosmos 2298 Rocket 4.3 05:19:09 10° SSW 05:24:25 77° ESE 05:29:44 10° NNE
Cosmos 1666 Rocket 4.0 05:20:52 10° S 05:25:08 67° E 05:29:27 10° NNE
ATLAS 3B R/B 3.1 05:18:38 10° NW 05:25:19 49° WSW 05:32:13 10° S
Cosmos 1862 4.2 05:22:14 10° SW 05:25:44 28° WNW 05:29:16 10° NNW
COSMOS 2406 4.3 05:21:28 10° NNW 05:27:00 46° ENE 05:32:30 10° SE
YAOGAN 6 2.9 05:26:20 10° N 05:29:38 41° WNW 05:32:55 10° SW
Cosmos 2341 Rocket 4.0 05:24:18 10° S 05:30:31 87° W 05:36:47 10° N
Cosmos 2278 Rocket 3.1 05:26:23 10° S 05:31:52 55° ESE 05:37:23 10° NNE
SL-8 Rocket 4.2 05:32:00 10° S 05:38:08 82° E 05:44:19 10° N
BREEZE M DEB (TANK) 2.7 05:35:49 10° WSW 05:42:38 50° NNW 05:45:14 10° NE
